Weather History for Stafford, VA

Change the Weather History Date:

Tuesday, January 21, 2014

  Actual Average (KNYG) Record (KNYG)
Temperature  
Mean Temperature 27 °F -  
Max Temperature 36 °F 38 °F 66 °F (2006)
Min Temperature 18 °F 24 °F 12 °F (2004)
Degree Days  
Heating Degree Days 38    
Moisture  
Dew Point 25 °F    
Average Humidity 89    
Maximum Humidity 100    
Minimum Humidity 66    
Precipitation  
Precipitation 0.05 in - - ()
Sea Level Pressure  
Sea Level Pressure 29.85 in    
Wind  
Wind Speed 5 mph (NNE)    
Max Wind Speed 18 mph    
Max Gust Speed 30 mph    
Visibility 6 miles    
Events Snow    
Averages and records for this station are not official NWS values.
T = Trace of Precipitation, MM = Missing Value Source: NWS Daily Summary

Daily Weather History Graph

Daily Weather History Graph

Search for Another Location

Airport:

Trip Planner

Search our weather history database for the weather conditions in past years. The results will help you decide how hot, cold, wet, or windy it might be!

Date:

Astronomy

Jan. 21, 2014 Rise Set
Actual Time 7:22 AM EST 5:19 PM EST
Civil Twilight 6:54 AM EST 5:48 PM EST
Nautical Twilight 6:22 AM EST 6:20 PM EST
Astronomical Twilight 5:50 AM EST 6:52 PM EST
Moon 10:45 PM EST 9:56 AM EST
Length of Visible Light 10h 54m
Length of Day
9h 56m
Waning Gibbous, 75% of the Moon is Illuminated
Jan 21
Waning Gibbous
Jan 24
Last Quarter
Jan 30
New
Feb 6
First Quarter
Feb 14
Full

Hourly Weather History & Observations

Time (EST) Temp. Windchill Dew Point Humidity Pressure Visibility Wind Dir Wind Speed Gust Speed Precip Events Conditions
12:15 AM 30.0 °F - 26.1 °F 85% 29.91 in 10.0 mi Calm Calm - N/A   Clear
12:35 AM 30.6 °F - 26.6 °F 85% 29.91 in 10.0 mi Calm Calm - N/A   Clear
12:55 AM 28.9 °F - 26.1 °F 89% 29.90 in 10.0 mi Calm Calm - N/A   Clear
1:15 AM 30.7 °F - 26.1 °F 83% 29.89 in 10.0 mi Calm Calm - N/A   Clear
1:35 AM 29.1 °F - 26.4 °F 90% 29.90 in 10.0 mi Calm Calm - N/A   Clear
1:55 AM 29.7 °F - 26.2 °F 87% 29.91 in 10.0 mi Calm Calm - N/A   Clear
2:15 AM 28.4 °F - 25.5 °F 89% 29.91 in 10.0 mi Calm Calm - N/A   Clear
2:35 AM 28.9 °F - 28.6 °F 99% 29.90 in 10.0 mi Calm Calm - N/A   Clear
2:55 AM 28.8 °F - 28.8 °F 100% 29.89 in 10.0 mi Calm Calm - N/A   Clear
3:15 AM 28.8 °F - 27.9 °F 96% 29.90 in 10.0 mi Calm Calm - N/A   Clear
3:35 AM 29.1 °F - 28.9 °F 99% 29.90 in 10.0 mi Calm Calm - N/A   Clear
3:55 AM 27.7 °F - 27.7 °F 100% 29.90 in 10.0 mi Calm Calm - N/A   Clear
4:15 AM 29.3 °F - 28.9 °F 99% 29.89 in 10.0 mi Calm Calm - N/A   Clear
4:35 AM 34.2 °F 30.0 °F 28.2 °F 79% 29.88 in 10.0 mi NE 4.6 mph - N/A   Clear
4:55 AM 33.8 °F 29.6 °F 28.2 °F 80% 29.88 in 10.0 mi NE 4.6 mph - N/A   Clear
5:15 AM 33.4 °F 29.1 °F 27.9 °F 80% 29.87 in 10.0 mi ENE 4.6 mph - N/A   Clear
5:35 AM 34.7 °F 31.8 °F 28.6 °F 78% 29.87 in 10.0 mi ENE 3.5 mph - N/A   Scattered Clouds
5:55 AM 34.9 °F 32.0 °F 28.4 °F 77% 29.87 in 10.0 mi ENE 3.5 mph - N/A   Mostly Cloudy
6:15 AM 34.7 °F 30.6 °F 28.6 °F 78% 29.86 in 10.0 mi ENE 4.6 mph - N/A   Mostly Cloudy
6:35 AM 34.7 °F 31.8 °F 28.4 °F 78% 29.86 in 10.0 mi ENE 3.5 mph - N/A   Clear
6:55 AM 34.9 °F 30.8 °F 28.4 °F 77% 29.85 in 10.0 mi NE 4.6 mph - N/A   Scattered Clouds
7:15 AM 35.1 °F 30.1 °F 28.4 °F 77% 29.86 in 10.0 mi NE 5.8 mph - N/A   Clear
7:35 AM 35.2 °F 30.3 °F 28.0 °F 75% 29.85 in 10.0 mi ENE 5.8 mph - N/A   Clear
7:55 AM 35.4 °F 32.6 °F 27.3 °F 72% 29.85 in 10.0 mi NE 3.5 mph - N/A   Clear
8:15 AM 35.2 °F 30.3 °F 27.1 °F 72% 29.85 in 10.0 mi NE 5.8 mph - N/A   Scattered Clouds
8:35 AM 35.6 °F 31.7 °F 26.8 °F 70% 29.86 in 10.0 mi NNE 4.6 mph - N/A   Mostly Cloudy
8:55 AM 35.6 °F 30.7 °F 26.6 °F 70% 29.85 in 10.0 mi NE 5.8 mph - N/A   Overcast
9:15 AM 35.8 °F 30.9 °F 26.6 °F 69% 29.86 in 10.0 mi NNE 5.8 mph - N/A   Overcast
9:35 AM 36.5 °F 31.8 °F 26.2 °F 66% 29.85 in 10.0 mi NE 5.8 mph - N/A   Overcast
9:55 AM 36.7 °F 30.5 °F 26.2 °F 66% 29.84 in 10.0 mi NNE 8.1 mph - N/A   Overcast
10:15 AM 36.7 °F 29.4 °F 26.4 °F 66% 29.84 in 10.0 mi NNE 10.4 mph - N/A   Overcast
10:35 AM 36.5 °F 28.7 °F 26.8 °F 68% 29.84 in 10.0 mi North 11.5 mph 16.1 mph N/A   Overcast
10:55 AM 36.5 °F 29.7 °F 27.1 °F 69% 29.82 in 10.0 mi NNE 9.2 mph 19.6 mph N/A   Overcast
11:15 AM 34.7 °F 27.5 °F 30.0 °F 83% 29.82 in 1.5 mi North 9.2 mph 17.3 mph N/A Snow Light Snow
11:35 AM 32.9 °F 24.1 °F 32.9 °F 100% 29.80 in 0.8 mi NNE 11.5 mph 20.7 mph N/A Snow Light Snow
11:55 AM 32.7 °F 25.0 °F 32.7 °F 100% 29.79 in 0.5 mi NNE 9.2 mph - N/A Snow Light Snow
12:15 PM 32.0 °F 21.2 °F 32.0 °F 100% 29.78 in 0.8 mi North 16.1 mph 20.7 mph N/A Snow Light Snow
12:35 PM 30.4 °F 20.0 °F 30.4 °F 100% 29.77 in 0.8 mi NNE 13.8 mph 21.9 mph N/A Snow Light Snow
12:55 PM 30.0 °F 20.0 °F 30.0 °F 100% 29.76 in 1.0 mi NNE 12.7 mph 19.6 mph 0.01 in Snow Light Snow
1:15 PM 29.3 °F 19.6 °F 28.9 °F 99% 29.76 in 1.2 mi NNE 11.5 mph 25.3 mph N/A Snow Light Snow
1:35 PM 29.3 °F 20.2 °F 29.3 °F 100% 29.75 in 1.8 mi NNE 10.4 mph 16.1 mph N/A Snow Light Snow
1:55 PM 29.1 °F 20.6 °F 29.1 °F 100% 29.75 in 1.2 mi NNE 9.2 mph - N/A Snow Light Snow
2:15 PM 28.6 °F 18.7 °F 28.6 °F 100% 29.75 in 1.2 mi NNE 11.5 mph 18.4 mph N/A Snow Light Snow
2:35 PM 28.2 °F 21.0 °F 28.2 °F 100% 29.76 in 1.5 mi NNE 6.9 mph - N/A Snow Light Snow
2:55 PM 28.2 °F 20.2 °F 28.2 °F 100% 29.76 in 1.0 mi NNE 8.1 mph - N/A Snow Light Snow
3:15 PM 27.9 °F 17.3 °F 27.9 °F 100% 29.77 in 0.8 mi NNE 12.7 mph 19.6 mph 0.02 in Snow Light Snow
3:35 PM 27.5 °F 19.3 °F 27.5 °F 100% 29.77 in 0.5 mi NNE 8.1 mph - 0.02 in Snow Light Snow
3:55 PM 27.1 °F 18.2 °F 27.1 °F 100% 29.78 in 0.5 mi North 9.2 mph 19.6 mph 0.03 in Snow Light Snow
4:15 PM 26.4 °F 16.6 °F 26.4 °F 100% 29.80 in 0.8 mi North 10.4 mph 18.4 mph N/A Snow Light Snow
4:35 PM 25.9 °F 17.4 °F 25.9 °F 100% 29.81 in 0.8 mi North 8.1 mph 17.3 mph N/A Snow Light Snow
4:55 PM 25.7 °F 16.4 °F 25.7 °F 100% 29.82 in 1.0 mi North 9.2 mph 20.7 mph N/A Snow Light Snow
5:15 PM 24.8 °F 14.6 °F 24.8 °F 100% 29.83 in 1.0 mi North 10.4 mph 18.4 mph 0.01 in Snow Light Snow
5:35 PM 24.6 °F 14.4 °F 24.6 °F 100% 29.84 in 2.5 mi North 10.4 mph - 0.01 in Snow Light Snow
5:55 PM 23.9 °F 10.3 °F 23.4 °F 98% 29.85 in 3.0 mi North 17.3 mph 24.2 mph 0.01 in Snow Light Snow
6:15 PM 23.7 °F 10.5 °F 22.1 °F 94% 29.86 in 4.0 mi North 16.1 mph 20.7 mph N/A Snow Light Snow
6:35 PM 23.4 °F 14.3 °F 23.2 °F 99% 29.87 in 1.8 mi North 8.1 mph 16.1 mph N/A Snow Light Snow
6:55 PM 23.0 °F 10.6 °F 23.0 °F 100% 29.87 in 1.8 mi NNW 13.8 mph - N/A Snow Light Snow
7:15 PM 22.1 °F 12.0 °F 22.1 °F 100% 29.88 in 2.0 mi North 9.2 mph - N/A Snow Light Snow
7:35 PM 21.9 °F 9.2 °F 21.2 °F 97% 29.89 in 2.0 mi North 13.8 mph 24.2 mph N/A Snow Light Snow
7:55 PM 21.9 °F 7.8 °F 21.4 °F 98% 29.90 in 2.0 mi NNW 17.3 mph 21.9 mph N/A Snow Light Snow
8:15 PM 21.2 °F 9.5 °F 20.3 °F 96% 29.90 in 3.0 mi NNW 11.5 mph 21.9 mph N/A Snow Light Snow
8:35 PM 21.0 °F 8.6 °F 20.3 °F 97% 29.90 in 1.8 mi North 12.7 mph 19.6 mph N/A Snow Light Snow
8:55 PM 20.3 °F 6.1 °F 18.9 °F 94% 29.90 in 2.5 mi North 16.1 mph 28.8 mph N/A Snow Light Snow
9:15 PM 19.8 °F 6.5 °F 18.7 °F 96% 29.89 in 3.0 mi North 13.8 mph 20.7 mph N/A Snow Light Snow
9:35 PM 19.8 °F 5.9 °F 17.6 °F 91% 29.90 in 4.0 mi North 15.0 mph 23.0 mph N/A Snow Light Snow
9:55 PM 19.4 °F 7.2 °F 15.8 °F 86% 29.90 in 7.0 mi North 11.5 mph 19.6 mph N/A   Overcast
10:15 PM 19.4 °F 8.6 °F 15.8 °F 86% 29.91 in 7.0 mi North 9.2 mph - N/A   Overcast
10:35 PM 19.4 °F 8.6 °F 15.4 °F 85% 29.92 in 7.0 mi North 9.2 mph - N/A Snow Light Snow
10:55 PM 19.2 °F 8.4 °F 14.9 °F 83% 29.92 in 7.0 mi North 9.2 mph 18.4 mph N/A Snow Light Snow
11:15 PM 18.9 °F 3.8 °F 13.3 °F 79% 29.92 in 10.0 mi North 17.3 mph 27.6 mph N/A   Overcast
11:35 PM 18.5 °F 4.9 °F 12.2 °F 76% 29.92 in 10.0 mi NNW 13.8 mph 26.5 mph N/A   Overcast
11:55 PM 18.5 °F 2.9 °F 10.6 °F 71% 29.92 in 10.0 mi North 18.4 mph 29.9 mph N/A   Overcast